#timestamp,LO_Frequency,Hit,StdDev 
1531051215.6,286046999.5,N
1531051235.4,286046999.4,N
1531051255.2,286046997.3,N
1531051275.1,286046996.7,N
1531051276.0,286046996.7,N
1531051295.8,286046996.9,N
1531051315.7,286046999.5,N
1531051335.5,286046997.0,N
1531051355.3,286046996.8,N
1531051375.2,286046997.2,N
1531051395.0,286046997.8,N
1531051395.9,286046997.8,N
1531051415.7,286046997.0,N
1531051435.6,286046997.1,N
1531051455.4,286046996.9,N
1531051475.3,286046997.1,N
1531051495.1,286046997.7,N
1531051496.0,286046997.7,N
1531051515.8,286046997.7,N
1531051535.7,286046994.9,Y
1531051555.5,286046998.7,P
1531051575.3,286046999.3,N
1531051595.2,286047001.2,N
1531051615.0,286046999.2,N
1531051615.9,286046999.2,N
1531051635.8,286046999.2,N
1531051655.6,286046998.9,N
1531051675.4,286046996.7,Y
1531051695.3,286046999.6,P
1531051715.1,286046996.6,P
1531051735.8,286046996.9,N
1531051755.7,286046997.4,N
1531051775.5,286046997.0,N
1531051795.4,286046996.9,N
1531051815.2,286046996.9,N
1531051835.0,286046997.9,N
1531051835.9,286046997.9,N
1531051855.8,286046998.0,N
1531051875.6,286046997.5,N
1531051895.4,286046997.3,Y
1531051915.3,286046998.6,P
1531051935.1,286046998.1,P
1531051955.9,286046999.6,N
1531051975.7,286046999.5,N
1531051995.5,286046999.2,N
1531052015.4,286046999.3,N
1531052035.2,286046998.9,N
1531052055.0,286046996.6,Y
1531052055.9,286046996.6,P
1531052075.8,286046998.3,N
1531052095.6,286046998.4,N
1531052115.5,286046998.4,N
1531052135.3,286046998.4,N
1531052155.1,286046998.7,N
1531052175.9,286046998.4,N
1531052195.7,286046998.1,N
1531052215.5,286046998.7,N
1531052235.4,286046998.2,Y
1531052255.2,286046999.7,P
1531052275.1,286047001.6,N
1531052276.0,286047001.6,N
1531052295.8,286047002.6,N
1531052315.6,286047002.4,N
1531052335.5,286047002.1,N
1531052355.3,286047002.0,N
1531052375.2,286047000.1,N
1531052395.9,286046999.7,N
1531052415.7,286047002.5,N
1531052435.6,286047002.7,N
1531052455.4,286047002.4,N
1531052475.2,286047002.4,N
1531052495.1,286047002.2,N
1531052496.0,286047002.2,N
1531052515.8,286047002.3,N
1531052535.7,286047002.3,N
1531052555.5,286047002.5,N
1531052575.3,286047002.7,N
1531052595.2,286047001.0,N
1531052615.0,286047000.6,N
1531052615.9,286047000.6,N
1531052635.8,286047001.2,N
1531052655.6,286046998.4,N
1531052675.4,286047001.2,N
1531052695.3,286047000.7,N
1531052715.1,286047000.8,N
1531052735.8,286046998.1,N
1531052755.7,286046999.9,N
1531052775.5,286047000.4,N
1531052795.4,286047000.0,N
1531052815.2,286047000.0,N
1531052835.0,286047002.6,N
1531052835.9,286047002.6,N
1531052855.8,286047002.5,N
1531052875.6,286047000.2,N
1531052895.4,286047002.4,N
1531052915.3,286047000.1,N
1531052935.1,286047002.4,N
1531052955.9,286047000.3,N
1531052975.7,286047001.1,N
1531052995.5,286046998.2,N
1531053015.4,286046998.5,N
1531053035.2,286047001.2,N
1531053055.0,286046998.5,N
1531053055.9,286046998.5,N
1531053075.8,286047000.7,N
1531053095.6,286046998.4,N
1531053115.5,286046998.2,N
1531053135.3,286047001.1,N
1531053155.1,286046998.1,N
1531053175.9,286047001.0,N
1531053195.7,286047000.0,N
1531053215.5,286047000.1,N
1531053235.4,286047000.5,N
1531053255.2,286047001.0,N
1531053275.1,286046999.9,N
1531053276.0,286046999.9,N
1531053295.8,286047000.1,N
1531053315.6,286046999.9,N
1531053335.5,286046999.8,N
1531053355.3,286046999.7,N
1531053375.1,286047000.6,N
1531053395.9,286047000.4,N
1531053415.7,286046999.7,N
1531053435.6,286047000.8,N
1531053455.4,286047000.5,N
1531053475.2,286047000.5,N
1531053495.1,286047001.0,N
1531053496.0,286047001.0,N
1531053515.8,286046998.2,N
1531053535.6,286046998.1,N
1531053555.5,286047000.8,N
1531053575.3,286046998.5,N
1531053595.2,286046998.5,N
1531053615.9,286046998.2,N
1531053635.7,286047000.3,N
1531053655.6,286046999.7,N
1531053675.4,286047002.3,N
1531053695.5,286047002.1,N
1531053715.3,286047001.9,N
1531053735.2,286047001.8,N
1531053755.0,286047002.3,N
1531053755.9,286047002.3,N
1531053775.8,286047002.5,N
1531053795.6,286047002.8,N
1531053815.4,286046999.7,N
1531053835.3,286046999.7,N
1531053855.1,286047000.0,N
1531053875.8,286047000.2,N
1531053895.7,286047002.7,N
1531053915.5,286047002.1,N
1531053935.4,286047002.4,N
1531053955.2,286047002.5,N
1531053975.0,286047002.2,N
1531053975.9,286047002.2,N
1531053995.8,286047004.4,N
1531054015.6,286047004.4,N
1531054035.4,286047001.8,N
1531054055.3,286047004.0,N
1531054075.1,286047001.4,N
1531054095.9,286047002.3,N
1531054115.7,286047002.3,N
1531054135.5,286047004.0,N
1531054155.4,286047003.9,N
1531054175.2,286047001.3,N
1531054195.1,286047003.9,N
1531054196.0,286047003.9,N
1531054215.8,286047003.8,N
1531054235.6,286047004.3,Y
1531054255.5,286047002.3,P
1531054275.3,286047002.8,P
1531054295.1,286047004.4,P
1531054315.9,286046999.8,N
1531054335.7,286047002.0,N
1531054355.6,286047002.6,N
1531054375.4,286047000.1,N
1531054395.2,286047002.4,N
1531054415.1,286047001.9,N
1531054416.0,286047001.9,N
1531054435.8,286047004.4,Y
1531054455.6,286047000.3,P
1531054475.5,286047001.0,N
1531054495.3,286046998.1,N
1531054515.2,286046998.7,N
1531054535.9,286046999.3,N
1531054555.7,286046999.4,N
1531054575.6,286046998.4,N
1531054595.4,286046996.6,N
1531054615.2,286046996.5,N
1531054635.1,286046999.1,N
1531054636.0,286046999.1,N
1531054655.8,286046998.8,N
1531054675.6,286046998.7,N
1531054695.5,286046998.7,N
1531054715.3,286046999.5,N
1531054735.2,286046998.9,N
1531054755.9,286046999.5,N
1531054775.7,286046999.2,N
1531054795.6,286046999.5,N
